Flag for Canada Weather past 2 weeks in Trois-Rivieres, Quebec, Canada

Now
66 °F

Mild.


Feels Like: 66 °F
Forecast: 61 / 69 °F
Wind: 18 mph from Southwest

Location: Trois Rivieres

Current Time: Sep 21, 2014 at 8:25:51 AM

Latest Report: Sep 21, 2014 at 7:00 AM


Visibility: N/A

Pressure: 29.67 "Hg

Humidity: 76%

Dew point: 58 °F

Location of Trois-RivieresLocation

Historic Weather in Trois-Rivieres — Graph

°F

Trois-Rivieres temperature yesterday

Maximum temperature yesterday: 65 °F (at 6:00 PM)
Minimum temperature yesterday: 44 °F (at 5:00 AM)
Average temperature yesterday: 55 °F

Past Weeks' High & Low Weather Summary

 TemperatureHumidityPressure
High73 °F (Sep 10, 4:00 PM)100% (Sep 15, 5:00 AM)30.43 "Hg (Sep 15, 5:00 AM)
Low35 °F (Sep 19, 7:00 AM)33% (Sep 19, 2:00 PM)29.46 "Hg (Sep 11, 2:00 PM)
Average56 °F76%30.07 "Hg
* Reported Sep 6 7:00 AM — Sep 21 7:00 AM, Trois-Rivieres, Weather by CustomWeather, © 2014

Note: Actual official high and low records may vary slightly from our data, if they occured in-between our weather recording intervals... More about our weather records

Advertising

Trois-Rivieres weather history for previous 24 hours

 ConditionsComfort  
Time TempWeatherWind HumidityBarometerVisibility
7:00 AM
Sep 21
66 °FMild.18 mph76%29.67 "HgN/A
6:00 AM65 °FMild.13 mph80%29.68 "HgN/A
5:00 AM65 °FMild.12 mph80%29.69 "HgN/A
4:00 AM64 °FMild.13 mph82%29.71 "HgN/A
3:00 AM64 °FMild.15 mph82%29.73 "HgN/A
2:00 AM63 °FMild.9 mph88%29.78 "HgN/A
1:00 AM64 °FMild.12 mph85%29.80 "HgN/A
12:00 AM62 °FCool.8 mph91%29.81 "HgN/A
11:00 PM
Sep 20
64 °FMild.14 mph83%29.81 "HgN/A
10:00 PM65 °FMild.13 mph81%29.82 "HgN/A
9:00 PM63 °FMild.10 mph87%29.83 "HgN/A
8:00 PM63 °FMild.10 mph86%29.83 "HgN/A
7:00 PM63 °FMild.18 mph85%29.82 "HgN/A
6:00 PM65 °FMild.18 mph77%29.83 "HgN/A
5:00 PM65 °FMild.17 mph77%29.85 "HgN/A
4:00 PM64 °FMild.18 mph77%29.88 "HgN/A
3:00 PM64 °FMild.10 mph72%29.91 "HgN/A
2:00 PM62 °FCool.13 mph75%29.93 "HgN/A
1:00 PM60 °FCool.9 mph77%29.95 "HgN/A
9:00 AM51 °FCool.8 mph85%30.03 "HgN/A
8:00 AM49 °FCool.6 mph78%30.05 "HgN/A
Weather by CustomWeather, © 2014

See weather overviewHow to use our weather pages